{"data":{"norad_id":56917,"epoch":"2026-09-19T03:41:15.143136Z","epoch_age_seconds":233924,"freshness":"STALE","line1":"1 56917U 23083AT  26262.15364749  .00000329  00000+0  21494-4 0  9998","line2":"2 56917  43.0028  58.2984 0001179 292.5048  67.5679 15.27575589181386","mean_motion":15.27575589,"eccentricity":0.0001179,"inclination_deg":43.0028,"raan_deg":58.2984,"arg_perigee_deg":292.5048,"mean_anomaly_deg":67.5679,"bstar":2.1494e-5,"rev_number":18138,"period_min":94.267020916632,"perigee_km":482.25336879432,"apogee_km":483.87123959025,"semimajor_km":6861.1993041923,"source":"CELESTRAK","updated_at":"2026-09-21T09:00:33.528417Z"}}